Location: Dewitt
(38.0677°N, 122.5397°W)
Time: 04:30:52
(UTC+00:00)

Daily predictions for brighter satellites

Satellite Brightness Start Highest point End
(mag) Time Altitude Azimuth Time Altitude Azimuth Time Altitude Azimuth
Cosmos 1626 Rocket 4.2 01:47:40 10° SSW 01:51:56 59° W 01:56:13 10° N
DELTA 2 R/B (1) 3.6 01:48:54 10° W 01:54:30 84° NNW 02:00:09 10° E
Cosmos 1125 Rocket 4.3 01:50:45 10° SW 01:55:49 53° WNW 02:00:55 10° N
Shenzhou-11 Module 1.6 01:54:35 10° WSW 01:57:17 83° SSE 01:59:48 11° ENE
Atlas Centaur 2 3.6 01:56:15 10° SSW 01:59:31 19° SSE 02:03:17 10° ESE
Cosmos 2154 Rocket 4.3 01:54:05 10° S 02:00:22 78° W 02:06:39 10° N
USA 234 3.3 01:56:23 10° SE 02:02:55 80° NE 02:09:28 10° NW
Cosmos 1340 Rocket 2.7 01:59:15 10° N 02:03:14 85° E 02:07:14 10° S
Okean-O 2.6 01:59:17 10° SSE 02:03:40 68° ENE 02:08:05 10° N
NOAA 12 4.1 01:59:34 10° SSE 02:04:48 90° ENE 02:10:04 10° NNW
Envisat 3.0 02:00:12 10° SSE 02:05:16 85° ENE 02:10:23 10° N
Cosmos 2237 Rocket 2.3 02:00:40 10° NNW 02:06:12 55° ENE 02:11:41 10° SE
H-2A R/B 4.5 02:05:45 10° SSW 02:09:18 37° W 02:12:56 10° NNW
CSL-04 Rocket 4.3 02:06:32 10° SE 02:11:27 35° ENE 02:16:26 10° N
Cosmos 1825 Rocket 3.5 02:07:44 10° S 02:12:01 62° E 02:16:19 10° NNE
Cosmos 2333 Rocket 3.6 02:07:20 10° NW 02:12:42 44° WSW 02:18:00 10° S
Cosmos 1269 Rocket 4.0 02:17:56 10° NNW 02:23:15 85° ENE 02:28:32 10° SSE
Cosmos 2366 rocket 4.1 02:19:25 10° SSE 02:25:22 52° E 02:31:25 10° NNE
SL-16 R/B 2.9 02:23:38 10° N 02:28:39 31° ENE 02:33:38 10° ESE
NOSS 0 Rocket 4.4 02:23:20 10° NNW 02:29:29 66° WSW 02:35:35 10° S
Cosmos 2219 4.1 02:25:25 10° SW 02:30:49 48° WNW 02:36:16 10° NNE
Cosmos 1939 Rocket 3.3 02:28:03 10° SE 02:31:38 36° ENE 02:35:16 10° N
Cosmos 2082 3.7 02:27:18 10° S 02:32:49 65° ESE 02:38:24 10° NNE
Meteor 1-21 Rocket 4.4 02:27:25 10° SSW 02:32:58 74° W 02:38:40 10° N
USA 116 3.0 02:32:07 12° NNE 02:34:57 63° ESE 02:38:00 10° S
SKYMED 2 4.1 02:30:43 10° N 02:35:00 62° WNW 02:39:16 10° SSW
Cosmos 1703 3.2 02:34:34 10° S 02:38:28 60° E 02:42:23 10° NNE
ADEOS Rocket 3.6 02:35:30 10° NNE 02:41:58 45° E 02:48:59 10° S
Cosmos 2297 Rocket 2.8 02:36:44 10° SW 02:42:15 56° WNW 02:47:51 10° NNE
ISS -2.4 02:41:20 10° W 02:44:26 34° NNW 02:45:59 22° NNE
SL-8 R/B 4.2 02:40:59 10° WSW 02:45:41 52° NNW 02:48:24 24° NE
CZ-4C R/B 3.9 02:41:11 10° NW 02:48:32 53° WSW 02:56:37 10° S
Ariane Rocket 3.6 02:44:19 10° SE 02:48:47 32° ENE 02:53:16 10° N
Cosmos 1980 4.3 02:43:13 10° NNW 02:48:49 61° WSW 02:54:23 10° S
YAOGAN 1 2.5 02:44:47 10° SSE 02:49:06 87° ENE 02:53:27 10° NNW
Cosmos-2242 3.2 02:46:38 10° NNW 02:50:57 73° W 02:55:10 10° S
BREEZE-M DEB (TANK) 2.8 02:47:47 10° SW 02:52:19 65° SE 02:52:47 53° E
Cosmos 2227 Rocket 3.1 02:49:24 10° SW 02:54:51 49° WNW 03:00:20 10° NNE
NOAA 11 4.1 02:50:16 10° SSE 02:55:46 85° ENE 03:01:17 10° NNW
FALCON 9 R/B 3.9 02:37:31 10° SW 02:56:23 40° SSE 03:00:28 23° ESE
Cosmos 1727 Rocket 4.0 02:50:20 10° N 02:56:24 56° E 03:02:25 10° SSE
Cosmos 2263 Rocket 4.0 02:52:55 10° SE 02:53:50 13° SE 02:53:50 13° SE
SL-8 Rocket 4.5 02:54:54 10° SSW 03:01:08 62° W 03:07:23 10° N
Cosmos 44 3.9 02:56:58 10° SW 03:01:28 49° WNW 03:04:29 19° NNE
CZ-4 R/B 2.6 03:00:00 10° S 03:03:50 44° W 03:07:46 10° NNW
ATLAS CENTAUR R/B 3.6 03:01:59 10° N 03:02:27 12° N 03:02:27 12° N
CZ-2D R/B 3.4 03:04:07 10° S 03:07:54 73° WSW 03:11:45 10° NNW
Meteor 2-10 Rocket 3.8 03:06:10 10° NNW 03:11:23 65° W 03:16:25 10° S
Cosmos 1455 3.8 03:18:01 10° NNW 03:21:30 35° W 03:24:57 10° SSW
Cosmos 2251 Rocket 3.4 03:17:13 10° NNW 03:22:32 80° ENE 03:25:46 24° SSE
Cosmos 44 Rocket 4.0 03:22:56 10° S 03:26:15 38° SSE 03:26:15 38° SSE
Centaur D AC-28 3.9 03:13:23 10° WSW 03:32:43 35° S 03:35:06 28° SE
Cosmos 1821 Rocket 3.9 03:27:36 10° S 03:33:58 73° E 03:37:13 31° NNE
DELTA 2 R/B (1) 3.5 03:35:32 10° W 03:41:04 80° N 03:41:04 80° N
Atlas Centaur 2 3.0 03:42:57 10° WSW 03:47:17 37° S 03:47:17 37° S
USA 238 DEB 4.4 03:59:18 10° SSW 04:03:25 40° S 04:03:25 40° S
USA 238 4.4 03:59:26 10° SSW 04:03:28 39° S 04:03:28 39° S
SL-16 R/B 3.6 04:07:40 10° NW 04:12:44 34° WSW 04:16:37 16° SSW
Cosmos 2263 Rocket 4.4 04:34:30 10° SW 04:35:37 16° SW 04:35:37 16° SW
CZ-3 R/B 4.5 09:38:49 10° SW 10:40:01 56° SSE 10:51:22 10° E
